Back to catalog

STARLINK-32630

AliveCommunicationsVLEO
NORAD 62047·PAYLOAD·🇺🇸 United States

Launched Nov 21, 2024 from Cape Canaveral Space Force Station

Loading…

Next Passes (next 24 hours)

TLE

FreshSource: CelesTrak SupGP

Epoch: Sep 15, 2026, 03:40 UTC

1 62047C 24216R   26258.15326389 -.00026948  00000+0 -97596-3 0  2581
2 62047  42.9999 273.5793 0001260 267.0786 244.9785 15.27595898    13

Track STARLINK-32630 in real time with AllMySat

Download on the App Store